Flag for Canada Weather past 2 weeks in Iqaluit, Nunavut, Canada

Now
46 °F

Broken clouds.


Feels Like: 43 °F
Forecast: 38 / 49 °F
Wind: 7 mph from Northeast

Location: Iqaluit

Current Time: Aug 30, 2015 at 9:58:14 AM

Latest Report: Aug 30, 2015 at 9:00 AM


Visibility: 30 mi

Pressure: 29.78 "Hg

Humidity: 66%

Dew point: 36 °F

Location of IqaluitLocation

Historic Weather in Iqaluit — Graph

°F

Iqaluit temperature yesterday

Maximum temperature yesterday: 48 °F (at 2:00 PM)
Minimum temperature yesterday: 36 °F (at 4:00 AM)
Average temperature yesterday: 43 °F

Past Weeks' High & Low Weather Summary

 TemperatureHumidityPressure
High50 °F (Aug 16, 4:00 PM)100% (Aug 27, 2:00 AM)30.34 "Hg (Aug 27, 2:00 AM)
Low30 °F (Aug 24, 12:00 AM)53% (Aug 19, 12:00 PM)29.51 "Hg (Aug 27, 3:00 PM)
Average40 °F80%29.89 "Hg
* Reported Aug 15 8:00 AM — Aug 30 8:00 AM, Iqaluit, Weather by CustomWeather, © 2015

Note: Actual official high and low records may vary slightly from our data, if they occured in-between our weather recording intervals... More about our weather records

Advertising

Iqaluit weather history for previous 24 hours

 ConditionsComfort  
Time TempWeatherWind HumidityBarometerVisibility
8:00 AM
Sun, Aug 30
45 °FCloudy.8 mph71%29.77 "Hg30 mi
7:00 AM43 °FPartly sunny.9 mph76%29.75 "Hg30 mi
6:00 AM41 °FPassing clouds.12 mph81%29.75 "Hg30 mi
5:00 AM39 °FPartly cloudy.12 mph87%29.74 "Hg30 mi
4:00 AM39 °FPassing clouds.9 mph81%29.74 "Hg15 mi
3:00 AM39 °FPartly cloudy.10 mph87%29.74 "Hg15 mi
2:00 AM41 °FPartly cloudy.7 mph81%29.73 "Hg15 mi
1:00 AM41 °FPassing clouds.9 mph87%29.72 "Hg15 mi
12:00 AM43 °FPassing clouds.8 mph81%29.72 "Hg15 mi
11:00 PM
Sat, Aug 29
43 °FPartly cloudy.12 mph76%29.72 "Hg15 mi
10:00 PM45 °FPassing clouds.8 mph71%29.73 "Hg15 mi
9:00 PM45 °FPassing clouds.7 mph71%29.73 "Hg15 mi
8:00 PM45 °FBroken clouds.8 mph71%29.73 "Hg30 mi
7:00 PM46 °FPartly sunny.10 mph62%29.73 "Hg30 mi
6:00 PM48 °FPartly sunny.13 mph54%29.73 "Hg30 mi
5:00 PM48 °FPartly sunny.15 mph58%29.73 "Hg30 mi
4:00 PM48 °FPartly sunny.16 mph58%29.73 "Hg30 mi
3:00 PM48 °FPartly sunny.15 mph58%29.74 "Hg30 mi
2:00 PM48 °FPartly sunny.12 mph62%29.74 "Hg30 mi
1:00 PM46 °FPartly sunny.14 mph66%29.74 "Hg30 mi
12:00 PM46 °FPartly sunny.12 mph71%29.75 "Hg30 mi
11:00 AM46 °FPartly sunny.14 mph66%29.75 "Hg30 mi
10:00 AM45 °FPartly sunny.13 mph71%29.75 "Hg30 mi
9:00 AM43 °FPartly sunny.10 mph81%29.76 "Hg30 mi
Weather by CustomWeather, © 2015

See weather overviewHow to use our weather pages